This is the latest recevied weather packets stored in our database for station/object DG4DAZ-6. If no packets are shown the sender has not sent any weather packets the latest 10 day(s).
| Time | Temp. | Humidity | Pressure | Rain* | Wind** | Luminosity | Snow |
|---|---|---|---|---|---|---|---|
| 1777370934 | 16.11° C | 44% | 1020.4 hPa | 0 mm | - | 826 W/m² | - |
| 1777370334 | 16.11° C | 42% | 1020.5 hPa | 0 mm | - | 751 W/m² | - |
| 1777369736 | 16.11° C | 46% | 1020.4 hPa | 0 mm | - | 753 W/m² | - |
| 1777369135 | 15.56° C | 48% | 1020.4 hPa | 0 mm | - | 747 W/m² | - |
| 1777368535 | 15.56° C | 49% | 1020.5 hPa | 0 mm | - | 726 W/m² | - |
| 1777367935 | 15.56° C | 50% | 1020.5 hPa | 0 mm | - | 718 W/m² | - |
| 1777367334 | 15° C | 53% | 1020.5 hPa | 0 mm | - | 700 W/m² | - |
| 1777366734 | 13.89° C | 55% | 1020.5 hPa | 0 mm | - | 673 W/m² | - |
| 1777366135 | 13.89° C | 56% | 1020.5 hPa | 0 mm | - | 638 W/m² | - |
| 1777365534 | 12.78° C | 56% | 1020.3 hPa | 0 mm | - | 419 W/m² | - |
| 1777364934 | 12.22° C | 59% | 1020.3 hPa | 0 mm | - | 452 W/m² | - |
| 1777364333 | 12.22° C | 57% | 1020.2 hPa | 0 mm | - | 260 W/m² | - |
| 1777363734 | 12.22° C | 57% | 1020.1 hPa | 0 mm | - | 403 W/m² | - |
| 1777363134 | 12.22° C | 57% | 1020.1 hPa | 0 mm | - | 437 W/m² | - |
| 1777362534 | 11.67° C | 58% | 1020 hPa | 0 mm | - | 391 W/m² | - |
| 1777361935 | 11.67° C | 59% | 1019.9 hPa | 0 mm | - | 296 W/m² | - |
| 1777361334 | 11.67° C | 61% | 1019.8 hPa | 0 mm | - | 303 W/m² | - |
| 1777360766 | 11.11° C | 62% | 1019.7 hPa | 0 mm | - | 323 W/m² | - |
| 1777360167 | 10.56° C | 64% | 1019.7 hPa | 0 mm | - | 324 W/m² | - |
| 1777359566 | 9.44° C | 66% | 1019.8 hPa | 0 mm | - | 250 W/m² | - |
| 1777358966 | 9.44° C | 69% | 1019.8 hPa | 0 mm | - | 234 W/m² | - |
| 1777358365 | 8.33° C | 71% | 1019.8 hPa | 0 mm | - | 224 W/m² | - |
| 1777357767 | 7.22° C | 73% | 1019.9 hPa | 0 mm | - | 185 W/m² | - |
| 1777357166 | 7.22° C | 74% | 1019.8 hPa | 0 mm | - | 132 W/m² | - |
| 1777356566 | 6.67° C | 75% | 1019.7 hPa | 0 mm | - | 115 W/m² | - |
* Rain latest hour (hover to see other rain measurements)
** Current wind speed in m/s (hover to see current wind gust speed)